Tracking 30922 objects as of 2-Jul-2025
HD Live streaming from Space Station
objects crossing your sky now

DEMETER

Track DEMETER now!
10-day predictions
DEMETER is classified as:


NORAD ID: 28368
Int'l Code: 2004-025C
Perigee: 628.7 km
Apogee: 630.9 km
Inclination: 98.1 °
Period: 97.2 minutes
Semi major axis: 7000 km
RCS: 0.9257 m2 (medium)
Launch date: June 29, 2004
Source: France (FR)
Launch site: TYURATAM MISSILE AND SPACE COMPLEX (TTMTR)

Study of ionosperic perturbations in relation with seismic activity; global study of the Earth electromagnetic environment.
Your satellite tracking list
Your tracking list is empty




NASA's NSSDC Master Catalog

Two Line Element Set (TLE):
1 28368U 04025C   25182.90792884  .00001272  00000-0  16685-3 0  9994
2 28368  98.0825 152.8169 0001582 115.4796 244.6580 14.82100323128769
Source of the keplerian elements: AFSPC